Regional Weather Roundup
Issued by NWS

Home | Current Version | Previous Version | Text Only | Print | Product List | Glossary On
Versions: 1 2 3 4 5 6 7 8 9 10 11 12 13 14 15 16 17 18 19 20 21 22 23 24 25 26 27 28 29 30 31 32 33 34 35 36 37 38 39 40 41 42 43 44 45 46 47 48 49 50
000
ASUS43 KMPX 221510
RWRMN
WEATHER ROUNDUP FOR MINNESOTA
NATIONAL WEATHER SERVICE TWIN CITIES/CHANHASSEN MN
1000 AM CDT TUE MAY 22 2018


NOTE: "FAIR" INDICATES FEW OR NO CLOUDS BELOW 12,000 FEET WITH NO
SIGNIFICANT WEATHER AND/OR OBSTRUCTIONS TO VISIBILITY. N/A MEANS
CURRENT SKY AND/OR WEATHER CONDITIONS ARE NOT AVAILABLE.

MNZ060>063-068>070-221600-
   Twin Cities Metro

CITY           SKY/WX    TMP DP  RH WIND       PRES   REMARKS
TWIN CITIES    CLOUDY    63  56  78 SW6       30.08R
ST PAUL        CLOUDY    61  56  83 SE8       30.08R HAZE
CRYSTAL        CLOUDY    64  55  72 SW8       30.06R
BLAINE         CLOUDY    64  55  72 SW5       30.06R
LAKEVILLE      CLOUDY    61  55  82 SE3       30.08R
EDEN PRAIRIE   CLOUDY    62  56  80 SW7       30.07R
SOUTH ST PAUL  FAIR      61  56  83 S6        30.08R
LAKE ELMO      CLOUDY    59  55  88 SW5       30.09R
$$
MNZ001>005-007-008-013>017-022>024-027-028-221600-
   Northwest Minnesota

CITY           SKY/WX    TMP DP  RH WIND       PRES   REMARKS
BEMIDJI        FAIR      62  53  71 CALM      30.02S
HALLOCK        FAIR      68  57  68 S8        29.96S
ROSEAU         FAIR      66  59  77 CALM      29.99S
WARROAD        FAIR      66  59  77 S3        30.00S
THIEF RVR FALL FAIR      65  56  72 S6        30.01S
CROOKSTON      FAIR      66  57  72 S10       30.00S
FOSSTON        FAIR      66  54  63 S5        30.02S
DETROIT LAKES  CLOUDY    61  54  77 S8        30.05R
MOORHEAD       CLOUDY    57  55  94 S8        30.04R FOG
PARK RAPIDS    CLOUDY    61  51  70 SE3       30.03S
MAHNOMEN       FAIR      65  54  67 SE5       30.02S
$$
MNZ006-009>011-018-025>026-221600-
   North Central Minnesota

CITY           SKY/WX    TMP DP  RH WIND       PRES   REMARKS
BAUDETTE       FAIR      65  55  70 CALM      30.01S
FLAG ISLAND    FAIR      54  52  94 S9        29.99R FOG
INTL FALLS     FAIR      65  52  62 CALM      30.02S
WASKISH        PTSUNNY   61  54  77 W5        30.03R
BIG FORK       FAIR      66  52  59 CALM      30.02F
LONGVILLE      CLOUDY    59  48  67 CALM      30.04S
GRAND RAPIDS   CLOUDY    59  45  59 SW3       30.06S
CRANE LAKE     FAIR      63  46  55 CALM      30.03F
ORR            FAIR      64  45  48 W3        30.01S
COOK           FAIR      64  54  68 CALM      30.03F
WALKER         CLOUDY    58  47  67 CALM      30.04R
$$
MNZ012-019>021-037-221600-
   Northeast Minnesota

CITY           SKY/WX    TMP DP  RH WIND       PRES   REMARKS
DULUTH         PTSUNNY   66  50  56 W5        30.03F
ELY            FAIR      64  48  55 N5        30.03S
HIBBING        FAIR      66  48  52 CALM      30.02F
EVELETH        FAIR      64  48  55 CALM      30.04S
DULUTH HARBOR  PTSUNNY   54  50  87 CALM      30.04S
TWO HARBORS    CLOUDY    70  48  46 CALM      30.01S
SILVER BAY     PTSUNNY   70  46  43 NW5       30.00F
GRAND MARAIS     N/A     47  35  63 SW13      30.00S
G MARAIS ARPRT FAIR      70  43  37 NW3       30.02S
$$
MNZ029>031-032-039>041-046>048-054>057-064-221600-
   West Central Minnesota

CITY           SKY/WX    TMP DP  RH WIND       PRES   REMARKS
FERGUS FALLS   FAIR      64  55  72 S8        30.00R
WHEATON        CLOUDY    63  57  82 SE8       30.04S HAZE
MORRIS         PTSUNNY   63  59  88 S9        30.04S
ALEXANDRIA     CLOUDY    64  56  75 S8        30.07R
ELBOW LAKE     CLOUDY    63  57  82 S10       30.04S
WADENA         CLOUDY    61  52  72 S3        30.04R
GLENWOOD       FAIR      61  57  88 S7        30.07R FOG
APPLETON       PTSUNNY   63  61  94 SE7       30.03F FOG
BENSON         CLOUDY    61  57  88 SW7       30.07R FOG
ORTONVILLE     CLOUDY    61  57  88 SE5       30.03R
MADISON        SUNNY     68  61  77 SE8       30.03S
WILLMAR        PTSUNNY   61  57  88 SW3       30.09S
$$
MNZ033>034-036-042>043-049>051-058-059-221600-
   Central Minnesota

CITY           SKY/WX    TMP DP  RH WIND       PRES   REMARKS
ST CLOUD       CLOUDY    61  56  83 S7        30.07R
SAUK CENTRE    CLOUDY    59  55  85 S3        30.07R
PAYNESVILLE    CLOUDY    61  58  90 S3        30.07S
AITKIN         FAIR      63  52  67 CALM      30.02S
PINE RIVER     CLOUDY    57  46  67 CALM      30.08R
BRAINERD       CLOUDY    63  48  58 CALM      30.05R
STAPLES        CLOUDY    61  48  63 S7        30.05R
LONG PRAIRIE   CLOUDY    57  52  82 SE3       30.07R
LITTLE FALLS   PTSUNNY   61  52  72 CALM      30.06R
LITCHFIELD     PTSUNNY   63  61  94 CALM      30.08R
BUFFALO        CLOUDY    61  55  81 S3        30.08S
MAPLE LAKE     CLOUDY    61  58  87 S3        30.08R
HUTCHINSON     CLOUDY    60  59  95 CALM      30.09R FOG
$$
MNZ037-044-045-052-053-221600-
   East Central Minnesota

CITY           SKY/WX    TMP DP  RH WIND       PRES   REMARKS
PRINCETON      PTSUNNY   64  55  72 S5        30.07R
MORA           PTSUNNY   63  54  72 W5        30.07R
CAMBRIDGE      CLOUDY    64  54  68 SW5       30.06R
RUSH CITY      CLOUDY    65  55  70 CALM      30.06R
MOOSE LAKE     CLOUDY    64  52  63 CALM      30.03S
HINCKLEY       FAIR      64  57  77 CALM      30.05S
CLOQUET        CLOUDY    63  50  63 CALM      30.04S
MCGREGOR       FAIR      64  54  68 N5        30.04F
$$
MNZ071>073-080-081-089-090-097-098-221600-
   Southwest Minnesota

CITY           SKY/WX    TMP DP  RH WIND       PRES   REMARKS
MONTEVIDEO     CLOUDY    61  61 100 S7        30.05F FOG
GRANITE FALLS  CLOUDY    61  61  99 SE6       30.07S
CANBY          MOSUNNY   67  60  78 SE7       30.04F
MARSHALL       MOSUNNY   62  58  86 S7        30.05S
REDWOOD FALLS  CLOUDY    58  58 100 SW6       30.06S FOG
OLIVIA         CLOUDY    63  59  88 S3        30.06S
PIPESTONE      CLOUDY    66  61  82 S6        30.03F
WINDOM         CLOUDY    61  46  59 SE3       30.06S
WORTHINGTON    MOSUNNY   64  61  88 SE6       30.06S
JACKSON        MOSUNNY   63  61  94 SE5       30.07S FOG
TRACY          MOSUNNY   62  62 100 SE3       30.05S
SLAYTON        SUNNY     66  64  93 SE6       30.05F
$$
MNZ065>067-074>077-082>085-091>093-221600-
   South Central Minnesota

CITY           SKY/WX    TMP DP  RH WIND       PRES   REMARKS
MANKATO        CLOUDY    62  58  86 CALM      30.09R
NEW ULM        MOSUNNY   63  61  94 CALM      30.07R
ST JAMES       PTSUNNY   61  61 100 CALM      30.08S
FAIRMONT       PTSUNNY   62  59  90 S6        30.07F
GLENCOE        CLOUDY    61  62 100 CALM      30.08R
FARIBAULT      CLOUDY    63  57  82 CALM      30.09R
OWATONNA       FAIR      63  57  82 SW3       30.08S FOG
WASECA         CLOUDY    63  54  72 SW8       30.09S
ALBERT LEA     CLOUDY    61  55  82 CALM      30.09R HAZE
$$
MNZ078>079-086>088-094>096-221600-
   Southeast Minnesota

CITY           SKY/WX    TMP DP  RH WIND       PRES   REMARKS
ROCHESTER      CLOUDY    58  56  93 W3        30.10R
RED WING       CLOUDY    61  54  77 SW3       30.08R
STANTON        CLOUDY    63  56  79 CALM      30.07S
DODGE CENTER   CLOUDY    57  57 100 CALM      30.09S FOG
WINONA         CLOUDY    59  55  88 CALM      30.06R
AUSTIN         CLOUDY    59  57  94 CALM      30.08S FOG
PRESTON        CLOUDY    57  54  89 W6        30.09S
$$
ABBREVIATIONS USED IN REMARKS
   TC - TEMPERATURES IN CELSIUS
  WCI - WIND CHILL INDEX
   HX - HEAT INDEX
  VSB - VISIBILITY
$$



USA.gov is the U.S. government's official web portal to all federal, state and local government web resources and services.